Back to catalog

CZ-6A DEB

AlivePO
NORAD 55895·DEBRIS·🇨🇳 China

Launched Nov 11, 2022 from Taiyuan Satellite Launch Center

Loading…

Next Passes (next 24 hours)

TLE

FreshSource: Space-Track

Epoch: Sep 14, 2026, 10:25 UTC

1 55895U 22151AAT 26257.43428745  .00010276  00000-0  13348-2 0  9999
2 55895  98.5831 319.6729 0086152  25.9583 334.5909 14.78325274197855

Track CZ-6A DEB in real time with AllMySat

Download on the App Store